Regional Weather Roundup
Issued by NWS

Home | Current Version | Previous Version | Text Only | Print | Product List | Glossary Off
Versions: 1 2 3 4 5 6 7 8 9 10 11 12 13 14 15 16 17 18 19 20 21 22 23 24 25 26 27 28 29 30 31 32 33 34 35 36 37 38 39 40 41 42 43 44 45 46 47 48 49 50

000
ASUS43 KLSX 241507
RWRMO

WEATHER SUMMARY FOR MISSOURI
NATIONAL WEATHER SERVICE SPRINGFIELD MO
1000 AM CDT TUE MAY 24 2016

NOTE: "FAIR" INDICATES FEW OR NO CLOUDS BELOW 12,000 FEET WITH NO
       SIGNIFICANT WEATHER AND/OR OBSTRUCTIONS TO VISIBILITY.
       CURRENT SKY AND/OR WEATHER CONDITIONS ARE NOT AVAILABLE FOR
       CHILLICOTHE AND FARMINGTON.

MOZ001>031-035>038-043-044-053-054-241600-
...NORTHERN AND WESTERN MISSOURI...

CITY           SKY/WX    TMP DP  RH WIND       PRES   REMARKS
KANSAS CTY INT LGT RAIN  65  63  93 W13G25    29.99R
KANSAS C DTWN  CLOUDY    69  64  84 SW8       29.99R
LEE`S SUMMIT   CLOUDY    68  64  87 S12       29.97R
ST JOSEPH      CLOUDY    68  61  78 S9        29.98R
CHILLICOTHE      N/A     68  64  87 S8        29.93F
KIRKSVILLE     CLOUDY    71  64  78 S8        29.98R

$$
MOZ066>068-077>081-088>096-101>105-241600-
...SOUTHWEST MISSOURI...

CITY           SKY/WX    TMP DP  RH WIND       PRES   REMARKS
SPRINGFIELD    CLOUDY    72  65  78 S10       29.98S
JOPLIN         MOSUNNY   79  69  71 S22       29.93F
BRANSON        PTSUNNY   72  66  83 S6        30.01F

$$
MOZ032>034-039>042-045>050-055>058-069>072-241600-
...CENTRAL MISSOURI...

CITY           SKY/WX    TMP DP  RH WIND       PRES   REMARKS
COLUMBIA       CLOUDY    73  64  73 S7        30.00R
JEFFERSON CITY CLOUDY    73  62  68 S5        29.99S
ROLLA          CLOUDY    71  64  78 S9        30.00S
SEDALIA        CLOUDY    68  66  93 S8        29.99F
WHITEMAN AFB   CLOUDY    66  66 100 S10       29.96R
WARRENSBURG    CLOUDY    63  63 100 S10       29.97R
OSAGE BEACH      N/A    N/A N/A N/A VRB7        N/A

$$
MOZ051-052-059>065-241600-
...EAST CENTRAL MISSOURI...

CITY           SKY/WX    TMP DP  RH WIND       PRES   REMARKS
ST LOUIS INTL  PTSUNNY   77  60  55 S9        30.02R
SPIRIT OF STL  PTSUNNY   77  62  59 S7        29.99S
ST CHARLES     SUNNY     76  60  57 S13       30.00S

$$
MOZ072>076-082>087-097>100-106>115-241600-
...SOUTH CENTRAL AND SOUTHEAST MISSOURI...

CITY           SKY/WX    TMP DP  RH WIND       PRES   REMARKS
CAPE GIRARDEAU MOSUNNY   71  59  65 S6        30.05S
FARMINGTON     CLOUDY    72  61  68 S7        30.05S
POPLAR BLUFF   CLOUDY    73  60  63 SW8       30.05R
WEST PLAINS    CLOUDY    69  61  75 SE7       30.05R

$$


USA.gov is the U.S. government's official web portal to all federal, state and local government web resources and services.